Theta_e
310 310 310 310 311 311 311 311 312 314 311 313 315 315 312 312 317 317 317 316 317 318 317 317 315 315 314 313 312 312 312 311 311 312 313 311 313 313 320 323 319 324 323 325 331
311 311 310 310 311 311 311 311 313 312 312 315 315 316 313 317 318 318 317 317 317 318 317 316 316 315 315 314 314 311 313 313 311 311 314 313 312 312 317 320 323 322 322 325 329
312 311 311 311 311 311 311 312 313 312 314 314 316 318 314 317 317 318 318 316 317 318 317 317 316 316 315 315 314 313 315 312 313 312 314 314 314 313 318 318 318 318 320 325 328
312 312 312 311 311 311 312 313 312 313 314 314 317 317 315 315 317 318 318 316 317 318 318 318 318 317 316 316 314 316 313 313 314 314 314 314 314 314 316 316 316 318 319 323 328
312 312 312 312 312 312 313 312 312 314 314 318 317 317 317 318 317 318 318 317 317 318 318 318 318 318 317 315 316 316 315 315 315 315 315 315 315 315 315 316 316 317 320 321 324
312 312 312 312 312 313 313 312 313 313 317 319 317 316 317 317 317 317 318 317 318 318 318 318 319 319 318 316 318 316 315 315 315 315 314 315 315 315 315 315 315 316 319 321 321
311 311 311 312 313 314 312 312 313 317 318 318 317 317 317 317 316 316 317 316 318 319 319 319 318 318 318 317 317 315 316 314 314 313 314 312 316 315 313 315 315 314 320 322 321
312 312 313 314 314 314 313 313 317 317 319 319 317 317 317 316 316 315 315 316 318 319 319 319 318 317 315 316 313 314 314 316 314 315 315 316 319 316 315 314 314 315 315 320 323
314 314 314 314 314 314 314 316 317 318 318 318 317 317 317 316 316 314 316 318 319 319 319 319 318 315 313 313 314 313 315 315 316 313 315 316 318 316 311 312 314 315 315 315 322
315 315 315 315 315 315 316 316 317 318 318 317 317 315 315 316 315 313 317 318 318 318 318 318 315 314 313 315 315 316 315 315 316 315 316 316 317 314 310 310 310 311 313 314 315
316 316 316 319 316 315 316 318 317 315 315 314 315 315 315 316 316 315 317 317 316 316 316 314 316 315 313 313 313 313 314 316 314 313 316 316 315 313 311 312 312 312 312 312 314
316 316 317 321 317 317 317 317 316 316 315 315 315 315 316 316 317 316 317 316 315 315 313 315 315 313 312 312 313 314 315 314 314 313 316 317 316 312 312 311 310 312 313 314 314
316 316 318 316 319 318 317 317 318 317 315 316 316 316 316 316 316 317 316 316 313 314 313 316 313 312 313 314 316 315 315 315 315 314 314 315 317 315 312 312 312 312 313 314 314
315 315 316 317 316 318 317 317 318 319 314 315 316 316 316 315 315 316 315 315 314 313 313 314 311 313 315 315 314 317 313 315 315 318 320 314 320 316 312 313 312 312 313 313 314
315 315 315 316 316 317 317 316 316 324 316 315 315 316 316 315 314 316 316 317 315 313 315 314 313 315 317 314 313 317 314 315 316 318 318 318 318 317 314 315 314 314 314 315 315
315 315 315 315 315 315 314 314 321 315 316 316 315 315 316 315 315 316 316 316 315 315 315 314 313 313 314 313 314 314 316 314 315 317 322 318 317 318 316 314 315 314 312 313 313
314 315 315 316 316 316 314 318 318 317 316 316 315 315 313 314 315 314 314 315 316 315 318 316 316 315 314 317 316 317 316 319 323 324 323 316 316 317 314 314 314 313 311 312 312
313 314 315 315 317 317 314 319 318 316 316 315 314 314 315 314 315 315 315 316 315 314 317 318 317 317 315 316 316 317 317 320 318 321 321 315 319 318 313 312 312 312 311 312 312
313 314 314 314 315 316 320 317 316 315 315 315 316 317 316 317 315 315 315 315 315 315 318 319 317 315 315 315 315 317 320 315 317 314 319 318 316 315 313 312 312 312 312 312 312
315 313 317 317 316 317 316 314 314 314 315 316 317 316 317 318 317 316 316 315 315 314 313 316 320 315 315 315 314 316 314 319 318 321 320 319 318 318 315 314 312 313 313 312 312
317 318 319 319 323 319 315 312 313 316 316 317 317 318 317 318 316 316 316 315 314 315 314 314 316 315 313 316 317 317 318 316 316 317 322 320 319 315 314 313 313 312 312 312 311
318 319 323 323 316 309 313 313 316 316 317 316 316 317 317 317 318 318 318 316 314 315 317 313 313 316 315 313 313 314 315 314 317 316 316 317 316 312 313 312 312 312 312 312 312
321 322 322 321 314 309 314 316 316 316 315 316 316 316 315 316 318 317 316 315 316 315 316 314 314 313 310 313 312 316 315 312 311 311 317 318 316 310 311 311 311 312 313 310 310
319 316 319 317 313 314 315 316 317 317 315 316 315 315 315 315 315 317 317 316 315 315 314 313 312 312 313 311 311 314 314 313 315 317 315 316 315 314 313 312 312 312 310 310 310
316 315 316 312 315 313 314 315 317 316 316 316 316 315 315 315 316 317 316 315 314 314 314 313 316 313 313 313 312 313 314 314 315 315 317 316 315 314 313 312 312 310 310 310 310
317 318 315 313 314 314 310 316 317 315 315 316 316 315 314 315 314 316 316 314 315 314 313 311 314 312 313 311 311 312 312 312 313 314 314 314 315 313 311 312 310 310 309 309 308
317 317 318 308 308 311 311 315 316 315 315 315 315 313 311 315 315 316 315 314 313 314 312 312 312 311 313 308 309 312 309 311 312 312 313 313 312 310 312 310 310 309 309 308 306
Wind_Speed
12 12 11 10 10 11 10 8 9 11 11 9 6 6 7 11 14 16 17 14 12 7 3 2 8 12 11 10 6 5 4 3 4 5 3 3 3 2 5 7 4 5 6 7 21
10 10 10 11 11 11 10 10 12 12 12 9 4 5 10 13 14 17 14 13 12 8 7 10 12 9 7 5 4 6 4 2 2 3 3 3 3 4 3 3 3 4 5 12 21
9 10 11 12 12 11 12 14 15 15 12 7 4 3 12 9 9 13 11 13 12 12 14 16 17 16 10 9 6 3 4 4 2 5 4 3 3 2 6 2 4 5 7 17 22
8 9 10 11 12 13 15 17 17 15 10 6 5 6 6 1 3 10 8 10 11 12 13 9 10 9 6 6 5 6 4 3 5 5 4 3 3 2 7 2 3 6 8 17 22
7 9 11 12 14 16 18 18 17 13 8 7 7 10 10 14 10 10 7 8 9 9 12 13 13 10 4 4 6 5 2 3 2 6 2 3 1 1 8 9 8 9 13 16 18
8 10 12 15 18 19 19 19 16 11 9 7 9 11 10 12 10 11 5 4 9 12 12 11 9 15 8 3 5 3 3 4 6 2 5 2 1 2 1 2 7 10 16 17 15
11 14 17 19 20 20 19 18 14 12 11 8 9 15 15 7 10 8 6 5 8 9 12 12 12 5 4 3 4 6 4 2 12 5 5 4 1 3 7 8 4 7 14 20 19
16 18 19 19 19 19 19 17 15 12 10 9 9 8 7 10 7 6 6 4 7 8 11 11 9 16 6 6 7 5 5 3 4 7 4 6 5 6 11 11 11 10 11 21 23
16 18 18 18 18 18 18 16 14 10 8 7 7 6 3 6 10 10 8 9 7 10 11 8 11 10 6 4 4 8 2 3 4 4 7 5 7 6 19 9 12 11 9 14 23
18 19 19 17 17 16 16 14 11 7 5 8 8 6 8 8 14 8 8 9 7 7 6 9 8 4 4 4 2 1 1 1 3 4 6 4 7 11 14 7 6 5 2 6 16
18 18 17 14 13 14 14 14 9 10 16 10 8 9 9 4 15 12 8 9 9 9 4 8 7 4 2 1 3 3 2 2 3 1 5 3 4 10 11 13 14 15 14 8 3
16 16 15 14 13 13 11 9 7 9 9 11 11 9 11 13 8 18 10 5 7 4 2 5 4 1 5 4 2 1 2 2 2 1 1 5 7 4 12 9 11 16 17 14 11
14 15 13 12 11 10 9 10 10 7 6 7 9 9 6 11 11 16 11 6 7 6 5 5 1 2 2 4 4 1 2 2 3 6 1 2 3 6 5 8 13 15 12 12 10
12 12 11 9 7 11 11 10 6 4 4 7 5 6 8 3 7 17 9 4 6 3 3 5 3 3 3 3 1 2 2 4 4 1 1 3 3 6 5 8 12 13 14 13 10
10 9 8 7 7 9 10 7 4 1 5 4 4 4 12 8 1 20 11 10 4 3 2 0 2 4 4 2 1 3 2 1 0 2 2 3 1 3 4 9 10 13 16 14 10
10 9 8 6 6 9 8 4 2 5 2 2 3 4 5 12 6 8 8 11 6 5 5 2 2 2 2 2 1 4 2 3 2 2 1 1 1 2 3 4 6 9 15 17 15
12 11 9 7 8 7 6 2 4 5 3 1 3 4 5 5 5 7 6 9 4 2 5 5 3 4 4 4 2 8 4 1 0 2 1 1 1 5 9 5 6 9 13 17 16
11 11 10 8 7 7 6 4 6 1 2 1 3 4 4 3 4 6 3 4 5 4 3 3 1 3 5 2 2 3 2 2 2 1 3 0 4 6 8 8 10 11 11 14 16
10 11 11 9 8 8 3 4 6 5 3 4 3 4 2 2 4 4 4 2 3 4 3 2 2 3 3 3 1 1 4 1 4 1 2 2 1 3 5 7 7 8 10 9 9
9 10 9 10 10 9 5 3 1 3 2 2 3 0 3 3 3 3 2 2 1 6 1 1 2 2 3 1 7 2 4 1 3 1 2 5 3 3 9 4 2 4 5 6 7
6 5 6 9 9 3 4 4 3 2 2 3 3 3 3 3 3 2 1 2 2 1 6 1 1 2 0 4 2 2 2 5 3 1 1 3 5 4 7 2 5 2 1 4 9
3 3 5 9 4 3 3 5 4 2 4 4 4 3 3 3 3 3 3 1 3 1 2 1 2 2 1 1 1 2 2 3 2 2 1 1 7 3 8 1 3 4 4 11 17
4 5 5 6 3 1 1 3 4 2 4 2 3 3 3 3 4 2 3 1 4 3 1 2 2 3 2 3 2 3 1 3 4 2 6 3 6 1 8 3 5 9 14 20 22
4 2 3 3 6 7 5 2 4 6 5 6 4 4 4 4 5 3 2 2 3 3 3 2 2 4 3 4 1 5 4 4 4 3 4 12 17 19 18 10 6 9 16 16 19
2 1 3 1 2 6 4 3 4 3 3 4 4 3 4 3 2 2 1 2 3 2 2 3 2 3 5 10 4 8 12 11 13 13 8 16 16 19 12 8 5 15 19 19 18
3 5 5 4 4 5 4 2 4 3 2 2 6 2 3 4 3 4 3 2 3 2 2 2 1 1 4 5 4 8 14 14 13 14 13 18 22 20 10 6 10 14 15 15 12
4 7 4 3 2 4 2 4 5 8 5 4 13 5 4 4 5 3 4 3 2 3 3 1 3 2 4 4 8 7 4 4 3 6 5 7 10 4 7 7 14 16 13 9 9
Wind_Direction
256 249 240 233 223 221 214 199 179 159 153 133 100 88 101 105 81 58 35 32 32 55 153 140 102 122 109 91 82 98 72 95 145 158 134 145 133 151 115 143 187 192 165 153 173
252 244 230 221 211 208 195 178 162 153 146 126 97 97 138 116 78 52 48 42 39 48 114 100 100 110 90 77 56 71 88 133 178 135 105 102 129 146 155 140 206 172 177 168 181
242 226 213 207 201 188 177 163 151 150 141 124 89 104 149 133 70 32 45 40 46 68 109 110 100 82 75 64 32 70 108 169 180 140 124 95 94 111 146 239 201 195 183 173 184
225 208 198 192 185 170 160 151 145 146 133 104 80 106 122 97 83 39 49 46 54 80 116 105 106 79 66 74 58 96 86 137 150 138 130 134 129 166 200 249 278 232 205 183 190
206 190 185 172 162 156 149 142 146 133 123 95 99 122 113 86 48 43 48 54 71 104 106 105 99 92 70 88 76 79 166 138 123 159 155 163 179 185 242 257 255 229 202 199 198
173 167 155 150 147 143 138 141 134 135 105 89 115 120 111 80 65 50 42 73 89 86 86 92 93 103 91 86 89 117 92 67 21 81 41 328 343 285 111 42 235 227 209 206 203
134 136 136 136 136 133 136 135 138 116 97 100 116 102 75 71 56 34 14 103 80 91 87 83 88 129 129 93 77 74 84 51 30 20 32 320 155 239 342 292 301 229 218 215 213
122 125 126 128 131 136 136 137 128 108 93 96 128 116 83 69 49 43 104 112 100 92 84 89 95 74 62 113 33 47 56 23 3 8 21 25 290 310 0 322 282 293 260 225 217
118 118 122 127 132 132 133 131 118 107 88 107 113 123 78 50 27 18 77 120 83 98 92 91 79 69 55 70 48 26 81 9 333 46 2 37 297 334 337 299 284 290 271 232 221
115 116 117 119 122 128 128 122 108 102 105 88 95 106 47 33 31 31 93 94 109 112 82 60 61 66 31 55 128 123 105 281 268 0 355 7 314 331 2 43 15 13 266 241 228
120 114 110 108 121 127 132 131 121 84 74 76 78 86 52 70 42 58 106 86 78 70 61 29 70 73 38 107 140 137 148 246 261 188 335 359 334 7 14 50 51 53 56 61 98
122 118 116 112 126 133 136 146 132 127 78 68 75 74 53 45 49 46 74 81 60 69 17 48 68 102 101 61 93 120 206 272 269 267 305 6 35 6 33 36 38 48 56 68 85
135 131 123 106 126 135 139 135 136 134 96 51 54 50 33 48 46 22 45 64 76 56 40 102 80 79 81 40 36 16 107 3 289 331 102 350 79 30 25 35 54 54 64 68 77
148 144 138 125 125 144 136 131 135 146 81 321 353 22 19 58 46 20 38 54 44 101 87 74 20 84 72 74 65 340 103 302 276 254 213 344 154 45 359 39 34 29 38 29 20
161 154 155 152 137 153 148 126 123 171 72 300 343 48 50 83 311 13 35 68 73 52 94 62 57 57 53 331 113 259 343 279 182 158 161 16 124 47 38 47 26 21 24 14 358
175 167 162 158 158 151 150 137 138 45 108 330 11 22 55 37 36 22 48 69 73 68 34 48 3 48 301 316 48 313 52 55 77 127 165 67 341 52 38 38 16 20 26 24 25
182 178 173 164 159 157 153 142 51 91 287 337 68 71 72 18 39 31 35 42 43 49 15 348 353 327 18 357 21 21 34 336 297 16 197 130 12 100 90 33 21 17 39 39 45
172 180 178 175 154 161 157 56 78 298 229 84 87 66 81 20 31 21 56 43 29 45 75 32 306 8 357 50 307 14 47 115 246 306 312 342 168 152 109 57 68 60 53 57 63
146 161 172 171 171 165 146 59 181 206 166 133 76 85 55 41 105 73 49 58 19 9 88 15 282 336 47 353 342 64 52 105 105 103 281 326 168 120 198 65 64 46 40 38 39
128 142 135 150 154 154 79 153 121 192 136 74 116 70 123 4 77 71 38 333 24 26 117 76 319 5 315 314 49 50 123 28 32 18 293 300 257 222 206 3 36 57 43 28 26
142 107 127 144 145 127 122 189 166 84 137 93 137 106 96 120 85 85 78 20 7 37 69 94 130 281 280 27 303 7 50 63 103 66 182 302 274 193 174 153 7 147 150 12 351
155 82 141 154 67 59 121 151 124 90 79 77 87 90 100 81 73 93 123 81 360 2 45 2 130 298 110 118 49 116 117 94 112 197 187 235 270 201 174 174 32 197 328 333 335
110 108 108 166 123 18 142 67 84 92 32 82 85 58 54 96 101 85 93 58 45 60 123 181 29 348 45 70 19 62 94 109 97 89 225 210 264 208 216 311 343 351 341 331 332
137 68 73 95 101 125 123 104 106 65 69 75 103 86 86 57 25 123 109 67 27 83 88 104 126 168 224 250 202 264 218 192 177 230 242 241 272 279 287 305 326 329 323 317 324
95 102 118 203 32 109 103 120 115 106 84 64 54 78 129 106 70 94 107 1 57 100 66 92 222 203 266 274 276 268 260 235 229 238 241 274 279 275 287 300 309 318 314 308 311
124 142 101 80 110 95 15 124 123 121 84 45 116 127 93 125 139 185 152 209 230 50 76 20 234 116 278 300 291 282 267 252 236 248 253 261 267 281 277 199 295 296 298 299 307
109 127 132 7 54 83 207 155 159 126 46 105 139 105 79 153 132 125 173 136 145 159 155 143 136 105 268 337 318 287 238 178 197 196 220 266 287 187 208 259 306 303 295 295 319